Saranac Lake, NY

2:31 AM EDT on May 27, 2018 (GMT -0400)
Adirondack Regional

Weather History for KSLK - November, 2013

Change the Weather History Date:

Saturday, November 16, 2013

  Actual Average Record
Temperature  
Mean Temperature 37 °F 32 °F  
Max Temperature 51 °F 42 °F 64 °F (2005)
Min Temperature 23 °F 23 °F 1 °F (1967)
Degree Days  
Heating Degree Days 28 33  
Month to date heating degree days 530 478  
Since 1 July heating degree days 1777 1770  
Cooling Degree Days 0 0  
Month to date cooling degree days 0  
Year to date cooling degree days 114  
Moisture  
Dew Point 26 °F    
Average Humidity 66    
Maximum Humidity 92    
Minimum Humidity 39    
Precipitation  
Precipitation 0.00 in 0.11 in 1.13 in (2006)
Month to date precipitation 1.98 1.85  
Year to date precipitation 36.89 33.73  
Sea Level Pressure  
Sea Level Pressure 30.23 in    
Wind  
Wind Speed 2 mph (SW)    
Max Wind Speed 14 mph    
Max Gust Speed 17 mph    
Visibility 10 miles    
Events      
T = Trace of Precipitation, MM = Missing Value Source: NWS Daily Summary

Daily Weather History Graph

Daily Weather History Graph

Search for Another Location

Airport or City:

Astronomy

Nov. 16, 2013 Rise Set
Actual Time 6:54 AM EST 4:28 PM EST
Civil Twilight 6:22 AM EST 4:59 PM EST
Nautical Twilight 5:47 AM EST 5:35 PM EST
Astronomical Twilight 5:13 AM EST 6:09 PM EST
Moon 4:03 PM EST (11/16) 5:46 AM EST (11/16)
Length of Visible Light 10h 36m
Length of Day
9h 33m
Waxing Gibbous, 99% of the Moon is Illuminated
Nov 16
Waxing Gibbous
Nov 17
Full
Nov 25
Last Quarter
Dec 2
New
Dec 9
First Quarter

Hourly Weather History & Observations

Time (EST) Temp. Windchill Dew Point Humidity Pressure Visibility Wind Dir Wind Speed Gust Speed Precip Events Conditions
12:51 AM 30.0 °F 25.2 °F 27.0 °F 88% 30.15 in 10.0 mi WSW 4.6 mph - N/A   Clear
1:51 AM 30.0 °F 26.5 °F 26.1 °F 85% 30.16 in 10.0 mi SW 3.5 mph - N/A   Clear
2:51 AM 28.9 °F 25.2 °F 26.1 °F 89% 30.18 in 9.0 mi SW 3.5 mph - N/A   Clear
3:51 AM 30.0 °F - 26.1 °F 85% 30.19 in 10.0 mi Calm Calm - N/A   Scattered Clouds
4:51 AM 26.1 °F - 24.1 °F 92% 30.21 in 10.0 mi Calm Calm - N/A   Clear
5:51 AM 26.1 °F - 24.1 °F 92% 30.22 in 10.0 mi Calm Calm - N/A   Clear
6:51 AM 24.1 °F - 23.0 °F 96% 30.24 in 10.0 mi Calm Calm - N/A   Clear
7:51 AM 28.0 °F 24.2 °F 25.0 °F 88% 30.26 in 10.0 mi SW 3.5 mph - N/A   Mostly Cloudy
8:51 AM 34.0 °F - 28.9 °F 82% 30.27 in 10.0 mi Calm Calm - N/A   Overcast
9:51 AM 39.0 °F - 28.0 °F 65% 30.27 in 10.0 mi Calm Calm - N/A   Overcast
10:51 AM 45.0 °F 41.2 °F 28.0 °F 52% 30.27 in 10.0 mi SSW 6.9 mph - N/A   Overcast
11:51 AM 46.9 °F - 28.0 °F 48% 30.26 in 10.0 mi SSW 6.9 mph - N/A   Mostly Cloudy
12:51 PM 48.9 °F - 28.0 °F 44% 30.24 in 10.0 mi SW 9.2 mph - N/A   Clear
1:51 PM 50.0 °F - 27.0 °F 41% 30.23 in 10.0 mi WSW 8.1 mph - N/A   Clear
2:51 PM 50.0 °F - 28.0 °F 43% 30.23 in 10.0 mi SW 9.2 mph - N/A   Clear
3:51 PM 48.0 °F - 27.0 °F 44% 30.23 in 10.0 mi Calm Calm - N/A   Clear
4:51 PM 37.0 °F - 27.0 °F 67% 30.25 in 10.0 mi Calm Calm - N/A   Clear
5:51 PM 30.0 °F - 26.1 °F 85% 30.26 in 10.0 mi Calm Calm - N/A   Clear
6:51 PM 28.9 °F - 26.1 °F 89% 30.25 in 10.0 mi Calm Calm - N/A   Clear
7:51 PM 27.0 °F - 24.1 °F 89% 30.25 in 10.0 mi Calm Calm - N/A   Clear
8:51 PM 27.0 °F - 25.0 °F 92% 30.24 in 10.0 mi Calm Calm - N/A   Clear
9:51 PM 27.0 °F - 24.1 °F 89% 30.23 in 10.0 mi Calm Calm - N/A   Clear
10:51 PM 25.0 °F - 23.0 °F 92% 30.23 in 10.0 mi Calm Calm - N/A   Clear
11:51 PM 25.0 °F - 24.1 °F 96% 30.22 in 10.0 mi Calm Calm - N/A   Clear